| time (UTC) | temp C | wind direction | speed KPH | gust KPH | rain 1hr cm | rain 24hr cm | rain mn cm | humidity % | barometer mb |
| 20260504050002 | -17 | 0.0 | 3.2 | 0.00 | 0.00 | 0.00 | 1009.7 | ||
| 20260504044502 | -17 | 0.0 | 1.6 | 0.00 | 0.00 | 0.00 | 1009.7 | ||
| 20260504043001 | -17 | 0.0 | 1.6 | 0.00 | 0.00 | 0.00 | 1009.7 | ||
| 20260504041501 | -17 | 0.0 | 1.6 | 0.00 | 0.00 | 0.00 | 1009.7 | ||
| 20260504040001 | -17 | 0.0 | 1.6 | 0.00 | 0.00 | 0.00 | 1009.7 | ||
| 20260504034501 | -17 | 0.0 | 0.0 | 0.00 | 0.00 | 0.00 | 1009.6 | ||
| 20260504033001 | -17 | 0.0 | 1.6 | 0.00 | 0.00 | 0.00 | 1009.5 | ||
| 20260504031502 | -17 | 0.0 | 1.6 | 0.00 | 0.00 | 0.00 | 1009.5 | ||
| 20260504030002 | -17 | 1.6 | 4.8 | 0.00 | 0.00 | 0.00 | 1009.5 | ||
| 20260504024502 | -17 | 0.0 | 1.6 | 0.00 | 0.00 | 0.00 | 1009.6 | ||
| 20260504023001 | -17 | 0.0 | 3.2 | 0.00 | 0.00 | 0.00 | 1009.6 | ||
| 20260504021501 | -17 | 0.0 | 1.6 | 0.00 | 0.00 | 0.00 | 1009.6 | ||
| 20260504020002 | -17 | 0.0 | 1.6 | 0.00 | 0.00 | 0.00 | 1009.8 | ||
| 20260504014502 | -17 | 0.0 | 1.6 | 0.00 | 0.00 | 0.00 | 1009.8 | ||
| 20260504013002 | -17 | 1.6 | 4.8 | 0.00 | 0.00 | 0.00 | 1009.8 | ||
| 20260504011501 | -17 | 0.0 | 1.6 | 0.00 | 0.00 | 0.00 | 1009.8 | ||
| 20260504010001 | -17 | 0.0 | 1.6 | 0.00 | 0.00 | 0.00 | 1009.8 | ||
| 20260504004501 | -17 | 0.0 | 0.0 | 0.00 | 0.00 | 0.00 | 1010.1 | ||
| 20260504003002 | -17 | 0.0 | 6.4 | 0.00 | 0.00 | 0.00 | 1010.1 | ||
| 20260504001502 | -17 | 0.0 | 3.2 | 0.00 | 0.00 | 0.00 | 1010.2 | ||
| 20260504000002 | -17 | 0.0 | 1.6 | 0.00 | 0.00 | 0.00 | 1010.4 | ||
| 20260503234501 | -17 | 0.0 | 6.4 | 0.00 | 0.00 | 0.00 | 1010.4 | ||
| 20260503233001 | -17 | 0.0 | 6.4 | 0.00 | 0.00 | 0.00 | 1010.4 | ||
| 20260503231501 | -17 | 0.0 | 0.0 | 0.00 | 0.00 | 0.00 | 1010.5 | ||
| 20260503230002 | -17 | 0.0 | 1.6 | 0.00 | 0.00 | 0.00 | 1010.7 | ||
| 20260503224502 | -17 | 0.0 | 1.6 | 0.00 | 0.00 | 0.00 | 1010.6 | ||
| 20260503223002 | -17 | 0.0 | 1.6 | 0.00 | 0.00 | 0.00 | 1010.4 | ||
| 20260503221502 | -17 | 0.0 | 1.6 | 0.00 | 0.00 | 0.00 | 1010.4 |